This is the latest recevied weather packets stored in our database for station/object KE4EST. If no packets are shown the sender has not sent any weather packets the latest 10 day(s).
| Time | Temp. | Humidity | Pressure | Rain* | Wind** | Luminosity | Snow |
|---|---|---|---|---|---|---|---|
| 1777714449 | 10° C | 79% | 1012.9 hPa | 0 mm | - | 0 W/m² | - |
| 1777714145 | 10° C | 79% | 1012.7 hPa | 0 mm | - | 0 W/m² | - |
| 1777713843 | 10° C | 79% | 1013 hPa | 0 mm | - | 0 W/m² | - |
| 1777713540 | 10° C | 81% | 1012.9 hPa | 0 mm | - | 0 W/m² | - |
| 1777713230 | 10° C | 77% | 1012.5 hPa | 0 mm | - | 0 W/m² | - |
| 1777712928 | 10° C | 76% | 1012.7 hPa | 0 mm | - | 0 W/m² | - |
| 1777712624 | 10° C | 77% | 1012.9 hPa | 0 mm | - | 0 W/m² | - |
| 1777712321 | 10° C | 77% | 1012.8 hPa | 0 mm | - | 0 W/m² | - |
| 1777712018 | 10.56° C | 78% | 1012.7 hPa | 0 mm | - | 0 W/m² | - |
| 1777711715 | 10.56° C | 75% | 1013 hPa | 0 mm | - | 0 W/m² | - |
| 1777711411 | 10.56° C | 76% | 1012.9 hPa | 0 mm | - | 0 W/m² | - |
| 1777711107 | 10.56° C | 76% | 1012.8 hPa | 0 mm | - | 0 W/m² | - |
| 1777710804 | 10.56° C | 76% | 1012.9 hPa | 0 mm | - | 0 W/m² | - |
| 1777710501 | 10.56° C | 79% | 1012.9 hPa | 0 mm | - | 0 W/m² | - |
| 1777710198 | 10.56° C | 77% | 1013 hPa | 0 mm | - | 0 W/m² | - |
| 1777709895 | 11.11° C | 75% | 1013 hPa | 0 mm | - | 0 W/m² | - |
| 1777709593 | 11.11° C | 77% | 1013.3 hPa | 0 mm | - | 0 W/m² | - |
| 1777709289 | 10.56° C | 75% | 1013.1 hPa | 0 mm | - | 0 W/m² | - |
| 1777708987 | 10.56° C | 76% | 1013.4 hPa | 0 mm | - | 0 W/m² | - |
| 1777708684 | 11.11° C | 77% | 1013.3 hPa | 0 mm | - | 0 W/m² | - |
| 1777708382 | 10.56° C | 76% | 1012.9 hPa | 0 mm | - | 0 W/m² | - |
| 1777708079 | 10.56° C | 78% | 1013.2 hPa | 0 mm | - | 0 W/m² | - |
| 1777707777 | 10.56° C | 78% | 1013.2 hPa | 0 mm | - | 0 W/m² | - |
| 1777707473 | 11.11° C | 78% | 1013.5 hPa | 0 mm | - | 0 W/m² | - |
| 1777707169 | 11.11° C | 79% | 1013.4 hPa | 0 mm | - | 0 W/m² | - |
* Rain latest hour (hover to see other rain measurements)
** Current wind speed in m/s (hover to see current wind gust speed)